Salem, OR

9:14 AM PST on November 22, 2017 (GMT -0800)
McNary

Weather History for KSLE - July, 2012

Change the Weather History Date:

Wednesday, July 4, 2012

  Actual Average Record
Temperature  
Mean Temperature 61 °F 66 °F  
Max Temperature 75 °F 79 °F 97 °F (2015)
Min Temperature 47 °F 52 °F 37 °F (1935)
Degree Days  
Heating Degree Days 4 2  
Month to date heating degree days 16 8  
Since 1 June heating degree days 175 138  
Since 1 July heating degree days 16 8  
Cooling Degree Days 0 2  
Month to date cooling degree days 0 8  
Year to date cooling degree days 19 45  
Since 1 June cooling degree days 15 36  
Growing Degree Days 10 (Base 50)    
Moisture  
Dew Point 46 °F    
Average Humidity 60    
Maximum Humidity 86    
Minimum Humidity 33    
Precipitation  
Precipitation 0.00 in 0.02 in 0.86 in (1986)
Month to date precipitation 0.07 0.09  
Year to date precipitation 32.16 21.18  
Snow  
Snow 0.00 in - - ()
Month to date snowfall 0.0  
Since 1 June snowfall 0.0  
Snow Depth 0.00 in    
Sea Level Pressure  
Sea Level Pressure 30.00 in    
Wind  
Wind Speed 5 mph (NNW)    
Max Wind Speed 10 mph    
Max Gust Speed 18 mph    
Visibility 10 miles    
Events      
T = Trace of Precipitation, MM = Missing Value Source: NWS Daily Summary

Daily Weather History Graph

Daily Weather History Graph

Search for Another Location

Airport or City:

Trip Planner

Search our weather history database for the weather conditions in past years. The results will help you decide how hot, cold, wet, or windy it might be!

Date:

Astronomy

Jul. 04, 2012 Rise Set
Actual Time 5:31 AM PDT 9:01 PM PDT
Civil Twilight 4:54 AM PDT 9:37 PM PDT
Nautical Twilight 4:06 AM PDT 10:26 PM PDT
Astronomical Twilight 3:03 AM PDT 11:28 PM PDT
Moon 9:37 PM PDT (7/4) 6:45 AM PDT (7/4)
Length of Visible Light 16h 42m
Length of Day
15h 29m
Full, 99% of the Moon is Illuminated
Jul 4
Full
Jul 10
Last Quarter
Jul 18
New
Jul 26
First Quarter
Aug 1
Full

Hourly Weather History & Observations

Time (PDT) Temp. Dew Point Humidity Pressure Visibility Wind Dir Wind Speed Gust Speed Precip Events Conditions
12:56 AM 51.1 °F 46.0 °F 83% 30.10 in 10.0 mi NNW 5.8 mph - N/A   Clear
1:56 AM 50.0 °F 46.0 °F 86% 30.09 in 10.0 mi NNW 6.9 mph - N/A   Clear
2:56 AM 48.0 °F 44.1 °F 86% 30.07 in 10.0 mi NNW 5.8 mph - N/A   Clear
3:56 AM 48.0 °F 45.0 °F 89% 30.07 in 10.0 mi NNW 4.6 mph - N/A   Clear
4:56 AM 48.0 °F 45.0 °F 89% 30.06 in 10.0 mi NNW 3.5 mph - N/A   Clear
5:56 AM 48.0 °F 44.1 °F 86% 30.06 in 10.0 mi NW 4.6 mph - N/A   Clear
6:56 AM 50.0 °F 46.0 °F 86% 30.06 in 10.0 mi North 4.6 mph - N/A   Clear
7:56 AM 54.0 °F 46.0 °F 75% 30.06 in 10.0 mi NNE 3.5 mph - N/A   Clear
8:56 AM 55.9 °F 46.0 °F 69% 30.06 in 10.0 mi NNE 6.9 mph - N/A   Partly Cloudy
9:56 AM 57.9 °F 46.9 °F 67% 30.05 in 10.0 mi Variable 4.6 mph - N/A   Partly Cloudy
10:56 AM 62.1 °F 48.0 °F 60% 30.03 in 10.0 mi NNE 5.8 mph - N/A   Clear
11:56 AM 64.9 °F 46.9 °F 52% 30.02 in 10.0 mi NNE 3.5 mph - N/A   Clear
12:56 PM 68.0 °F 46.0 °F 45% 30.00 in 10.0 mi Variable 4.6 mph - N/A   Clear
1:56 PM 69.1 °F 46.9 °F 45% 29.98 in 10.0 mi Variable 5.8 mph - N/A   Clear
2:56 PM 71.1 °F 45.0 °F 39% 29.97 in 10.0 mi North 8.1 mph - N/A   Clear
3:56 PM 72.0 °F 42.1 °F 34% 29.96 in 10.0 mi Variable 6.9 mph - N/A   Clear
4:56 PM 73.0 °F 43.0 °F 34% 29.94 in 10.0 mi NNE 4.6 mph - N/A   Clear
5:56 PM 73.9 °F 43.0 °F 33% 29.93 in 10.0 mi NE 6.9 mph - N/A   Clear
6:56 PM 73.0 °F 45.0 °F 37% 29.92 in 10.0 mi North 9.2 mph - N/A   Clear
7:56 PM 70.0 °F 48.9 °F 47% 29.92 in 10.0 mi NW 10.4 mph - N/A   Clear
8:56 PM 64.9 °F 51.1 °F 61% 29.93 in 10.0 mi West 4.6 mph - N/A   Clear
9:56 PM 61.0 °F 50.0 °F 67% 29.94 in 10.0 mi West 3.5 mph - N/A   Clear
10:56 PM 57.9 °F 48.9 °F 72% 29.96 in 10.0 mi NW 4.6 mph - N/A   Clear
11:56 PM 55.9 °F 48.9 °F 77% 29.96 in 10.0 mi Calm Calm - N/A   Clear